STARLINK-35167

Last updated on Mon Oct 20 2025 00:02:06 GMT+0000 (Coordinated Universal Time)

1 65736U 25216C 25292.23901404 .00115650 00000+0 20545-2 0 9991 2 65736 53.1587 272.2728 0000942 119.6836 240.4267 15.49341260 4854
UTC large
Height (km)
Speed (km/s)
/
Latitude / Longitude
Inclination (degrees)
Orbital Period (minutes)
Azimuth
Elevation
Range (km)
Doppler Factor

Next 0 passes for location: London (51.5072 / 0.1276)

Sorry there are no passes over London.